Regional Weather Roundup
Issued by NWS Upton, NY

Current Version | Previous Version | Text Only | Print | Product List | Glossary On
Versions: 1 2 3 4 5 6 7 8 9 10 11 12 13 14 15 16 17 18 19 20 21 22 23 24 25 26 27
000
ASUS41 KOKX 200508
RWROKX

Regional Weather Roundup
National Weather Service New York NY
1200 AM EST SAT JAN 20 2018

Note: "FAIR" indicates few or no clouds below 12,000 feet with no
significant weather and/or obstructions to visibility.

NYZ071-072-176-178-NJZ106-104-200600-
New York City Metro Area

CITY           SKY/WX    TMP DP  RH WIND       PRES   REMARKS
Central Park   FAIR      39  19  44 VRB3      29.94F
Bronx Bot Gard   N/A     39  19  45 W2        29.92F
Bronx Lehman C   N/A     39  21  48 SW5         N/A
LaGuardia Arpt FAIR      39  19  44 SW13      29.93F WCI  31
Queens College   N/A     37  21  52 SW8         N/A  WCI  31
Kennedy Intl   FAIR      35  23  61 SW10      29.96F WCI  27
Breezy Point     N/A     34 N/A N/A SW5         N/A  WCI  30
Brooklyn Coll    N/A     37  23  56 SW6         N/A  WCI  33
Staten Island    N/A     36  21  55 SW6         N/A  WCI  31
Newark/Liberty FAIR      34  20  56 SW10      29.94F WCI  26
Teterboro      FAIR      30  20  66 CALM      29.92F
$$

NYZ177-179-078>081-200600-
Long Island New York

CITY           SKY/WX    TMP DP  RH WIND       PRES   REMARKS
Jones Beach      N/A     36 N/A N/A SW9         N/A  WCI  29
Wantagh          N/A     34  28  80 SW5         N/A  WCI  30
Matinecock Pt    N/A     37 N/A N/A SW13        N/A  WCI  29
Farmingdale    FAIR      32  25  75 SW5       29.95F WCI  27
MacArthur/ISP  FAIR      32  26  78 SW6       29.94F WCI  26
Shirley        FAIR      34  27  75 SW7       29.95F WCI  28
Mt Sinai Harb    N/A    N/A N/A N/A SW8G15      N/A
Westhampton    FAIR      17  13  84 S3        29.96F
East Hampton   FAIR      20  17  87 CALM      29.94F
Southold         N/A     30  25  80 SW6         N/A  WCI  24
Montauk          N/A     37  26  64 SW6       29.94F WCI  32
$$

NYZ052-065-067-200600-
Hudson Valley

CITY           SKY/WX    TMP DP  RH WIND       PRES   REMARKS
White Plains   FAIR      34  18  52 VRB3      29.90F
Larchmont Harb   N/A     36 N/A N/A S9          N/A  WCI  29
Croton On Huds   N/A    N/A N/A N/A E1          N/A
Somers           N/A     30  19  64 SW3         N/A
Brewster         N/A     27  18  69 NW1         N/A
Newburgh       PTCLDY    28  19  69 W6        29.90F WCI  22
Montgomery     FAIR      25  16  68 SW6       29.88F WCI  18
Otisville        N/A     32  21  64 SW5         N/A  WCI  27
Warwick          N/A     36  21  55 W8          N/A  WCI  29
Suffern          N/A     28  19  69 CALM        N/A
Poughkeepsie   FAIR      19  14  81 CALM      29.90F
Albany         MOCLDY    28  16  60 S15       29.84F WCI  16
$$

NJZ001-105-106-008-010-013-015-019>022-104-200600-
New Jersey

CITY           SKY/WX    TMP DP  RH WIND       PRES   REMARKS
Newark/Liberty FAIR      34  20  56 SW10      29.94F WCI  26
Teterboro      FAIR      30  20  66 CALM      29.92F
Caldwell       FAIR      34  18  52 SW8       29.93F WCI  27
Somerville     FAIR      21  20  96 CALM      29.93F
Linden         FAIR      33  19  57 CALM      29.95F
Perth Amboy      N/A     36 N/A N/A W7          N/A  WCI  30
Sussex         FAIR      25  19  78 S5        29.91F WCI  19
Andover          N/A     18  15  88 CALM      29.92F
Trenton        FAIR      34  18  52 SW7       29.96F WCI  28
Millville      FAIR      32  19  58 SW5       30.02F WCI  27
Atlantic City  FAIR      37  19  48 SW7       30.01F WCI  32
Wrightstown    FAIR      34  18  53 SW6       29.95F WCI  28
Toms River     FAIR      30  20  66 SW6       30.00F WCI  24
Belmar         FAIR      34  17  50 SW9       29.97F WCI  27
$$

PAZ047>061-062-071-200600-
Eastern Pennsylvania

CITY           SKY/WX    TMP DP  RH WIND       PRES   REMARKS
Philadelphia   FAIR      35  19  52 SW9       30.01F WCI  28
Allentown      FAIR      25  17  72 SW7       29.94F WCI  17
Scranton       FAIR      35  20  54 SW7       29.89F WCI  29
$$

CTZ002-004>006-009-010-012-RIZ004-006-007-MAZ004-011-015-200600-
Southern New England

 In CT

CITY           SKY/WX    TMP DP  RH WIND       PRES   REMARKS
Bradley Intl   MOCLDY    28  19  69 S8        29.88F WCI  20
Hartford       FAIR      29  19  66 S5        29.90F WCI  24
Danbury        FAIR      33  19  56 W3        29.91F
Wtrbury/Oxford FAIR      24  17  74 S3        29.89F
Norwalk Harbor   N/A     32 N/A N/A SW3         N/A
Bridgeport     FAIR      29  24  82 CALM      29.93F
Meriden        FAIR      21  17  84 VRB5      29.92F WCI  15
New Haven      FAIR      33  27  78 SW3       29.92F
Chester        FAIR      30  23  74 SW3       29.91F
Groton         FAIR      33  24  69 SW9       29.93F WCI  25
Willimantic    FAIR      20  16  84 CALM      29.91F

 In RI

CITY           SKY/WX    TMP DP  RH WIND       PRES   REMARKS
Providence     FAIR      28  20  71 S6        29.92F WCI  22
Block Island   FAIR      34  25  69 SW10      29.94F WCI  26
Westerly       FAIR      29  23  78 SW3       29.93F

In MA

CITY           SKY/WX    TMP DP  RH WIND       PRES   REMARKS
Boston         FAIR      30  19  63 SW13      29.89F WCI  20
Worcester      FAIR      26  14  60 SW14      29.81F WCI  14
Westfield      FAIR      25  17  72 S5        29.87F WCI  19
Provincetown   FAIR      32  23  69 MISG        N/A
Nantucket      FAIR      31  27  85 W7        29.96F WCI  24
$$

ANZ330-335-338-340-345-350-353-355-200600-
Coastal Marine Observations


STATION/POSITION TIME  SKY/WX   TEMP    WIND        PRES    VSBY  WAVE
                                AIR SEA DIR/SP/G                  HT/PER
                 (UTC)          (F)     (DEG/KT/KT) (MB)    (MI)  (FT/S)
NY Harb Entrance 0350            40 40  220/ 14/ 16 1014.8          2/11
20 S Fire Island 0450            42 42  240/ 16/ 19 1014.9          3/ 5
15 E Barnegat Li 0430               42                N/A           3/ 4
Hudson Canyon    0350            46 48  240/ 17/ 21 1016.2          5/ 6
Kings Point      0430            36 32  210/ 10/ 10 1014.9
Execution Rocks  NOT AVBL
Western LI Sound NOT AVBL
Central LI Sound 0415            35     220/ 10/ 12   N/A           1
Robbins Reef     0436            38     240/  9/ 11 1015.0
$$


>>>>>>>>>>>>>>>>>>>>>>>>>>>> KEY <<<<<<<<<<<<<<<<<<<<<<<<<<<
>                                                          <
>     SKY/WX - Sky Condition/Present Weather               <
>     TMP    - Temperature in Fahrenheit                   <
>     DP     - Dew Point in Fahrenheit                     <
>     RH     - Relative Humidity in Percent                <
>     WIND   - Direction (from) and Speed in MPH           <
>     PRES   - Mean Sea Level Pressure (inches of Hg)      <
>     WCI    - Wind Chill Index                            <
>     VSB    - Visibility in Miles                         <
>     HX     - Heat Index                                  <
>     TC     - Temperature in Celsius                      <
>     VRB    - Varibale Wind Direction                     <
>                                                          <
>>>>>>>>>>>>>>>>>>>>>>>>>>>> KEY <<<<<<<<<<<<<<<<<<<<<<<<<<<




USA.gov is the U.S. government's official web portal to all federal, state and local government web resources and services.